Temperature
15 15 16 16 14 13 14 16 17 19 20 21 21 20 19 18 19 19 18 18 18 18 18 17 18 18 18 18 18 17 17 17 17 17 17 16 16 16 16 16 16 16 16 16 16 16 15 15 15
15 15 16 16 13 14 14 15 18 19 21 21 21 20 18 17 18 18 17 17 18 18 17 17 17 17 17 17 17 17 17 17 17 17 16 16 16 16 16 16 16 16 16 16 16 15 15 15 15
15 15 15 12 13 14 16 17 18 19 21 21 20 19 18 18 17 17 18 17 17 17 17 17 17 17 17 17 17 17 17 17 17 17 16 16 16 16 16 16 16 16 16 16 15 15 15 15 15
15 15 15 12 14 14 16 18 18 19 21 21 20 18 18 18 18 18 18 17 17 17 17 17 17 17 17 17 17 17 17 17 17 16 16 16 16 16 16 16 16 16 15 15 15 15 15 15 15
14 14 12 13 14 15 16 18 19 19 19 20 19 16 17 18 18 18 17 17 17 17 17 17 17 17 17 17 17 17 17 16 16 16 16 16 16 16 16 16 15 15 15 15 15 15 15 15 14
14 12 12 12 14 15 16 19 19 18 19 19 18 16 16 17 17 17 17 17 17 17 16 16 16 17 17 17 17 17 16 16 16 16 16 16 16 16 16 15 15 15 15 15 15 15 15 14 14
13 11 12 13 14 15 17 19 18 17 17 19 19 16 16 16 17 17 17 17 16 16 16 16 16 16 16 16 16 16 16 16 16 16 16 15 15 15 15 15 15 15 15 15 15 15 14 14 14
13 11 13 13 14 16 17 19 19 19 18 19 19 16 16 16 16 16 16 16 16 16 16 16 16 16 16 16 16 16 16 16 16 16 15 15 15 15 15 15 15 15 15 15 15 14 14 14 14
13 11 12 13 15 16 17 17 18 19 19 18 18 18 18 16 16 16 16 16 16 15 16 16 16 16 16 16 16 16 16 16 16 16 15 15 15 15 15 15 15 15 15 14 14 14 14 14 14
12 11 12 14 15 16 16 17 18 18 16 16 17 17 17 16 16 16 16 15 15 15 15 15 16 16 16 16 16 16 16 16 16 16 15 15 15 15 15 15 15 15 14 14 14 14 14 14 14
12 11 13 14 16 16 16 16 17 16 15 15 16 16 16 16 16 16 16 16 16 15 15 15 15 15 15 15 15 15 15 15 15 15 15 15 15 15 15 15 14 14 14 14 14 14 14 14 13
11 12 13 14 15 15 15 15 16 16 16 17 18 17 16 16 16 16 16 16 15 15 15 15 15 15 15 15 15 15 15 15 15 15 15 15 15 15 15 14 14 14 14 14 14 14 14 13 13
11 12 13 14 14 14 15 14 14 15 16 16 16 16 16 16 16 16 16 15 15 15 15 15 15 15 15 15 15 15 15 15 15 15 15 15 15 15 14 14 14 14 14 14 14 13 13 13 13
11 12 12 13 14 14 13 13 14 14 15 16 15 15 15 15 15 15 15 15 15 15 15 15 15 15 15 15 15 15 15 15 15 15 15 14 14 14 14 14 14 14 13 13 13 13 13 13 13
12 11 11 12 13 13 13 12 12 14 14 14 14 15 15 15 15 15 15 15 15 15 15 15 15 14 14 15 14 14 14 14 14 14 14 14 14 14 14 14 14 13 13 13 13 13 13 13 12
10 10 10 11 12 12 12 11 12 13 14 13 13 14 14 14 14 15 15 15 15 15 15 15 14 14 14 14 14 14 14 14 14 14 14 14 14 14 14 14 13 13 13 13 13 13 13 12 12
9 8 9 10 11 11 11 10 11 13 13 12 13 13 13 14 14 14 14 15 15 15 15 14 14 14 14 14 14 14 14 14 14 14 14 14 13 13 13 13 13 13 13 12 12 12 12 12 12
8 8 9 9 10 10 10 10 11 12 12 12 12 12 12 13 13 14 14 14 14 14 14 14 14 14 14 14 14 14 13 13 13 13 13 13 13 13 13 13 13 12 12 12 12 12 12 12 12
8 8 9 9 10 10 9 10 10 11 11 11 11 11 11 12 13 13 13 13 14 14 14 14 14 14 14 14 13 13 13 13 13 13 13 13 13 13 13 12 12 12 12 12 12 12 12 11 11
8 8 8 9 10 10 9 9 10 10 10 11 10 11 11 11 12 12 12 13 13 13 13 13 13 14 14 14 13 13 13 13 13 13 13 12 13 12 12 12 12 12 12 12 12 11 11 11 11
8 7 8 8 9 9 9 8 9 9 10 10 10 11 11 11 11 12 12 12 12 13 13 13 13 13 13 13 13 13 12 12 12 12 12 12 12 12 12 12 12 12 11 11 11 11 11 11 11
7 8 8 8 8 7 8 7 8 8 8 9 9 10 10 10 11 11 11 12 12 12 12 12 12 12 13 13 13 13 12 12 12 12 12 12 12 12 12 11 11 11 11 11 11 11 11 11 10
7 8 8 8 7 6 7 6 7 7 8 8 8 8 9 10 10 10 11 11 11 11 12 12 12 12 12 12 12 12 12 12 12 12 12 11 11 11 11 11 11 11 11 11 11 10 10 10 10
7 7 7 6 6 6 6 6 6 6 7 8 8 8 9 9 10 10 10 10 10 11 11 11 11 11 11 11 11 12 11 11 11 11 11 11 11 11 11 11 11 11 10 10 10 10 10 10 10
6 6 5 5 5 5 6 6 6 7 7 7 7 8 8 9 9 9 9 9 10 10 10 10 10 10 11 11 11 11 11 11 11 11 11 11 11 11 11 10 10 10 10 10 10 10 10 10 9
5 5 5 5 5 5 6 5 6 6 6 7 8 7 8 8 8 8 8 9 9 9 9 9 10 10 10 10 10 10 10 10 10 10 10 10 10 10 10 10 10 10 10 10 10 9 9 9 9
5 5 5 4 4 4 5 5 6 6 6 6 6 6 6 7 7 7 8 8 8 8 9 9 9 9 9 9 9 9 9 10 10 10 10 10 10 10 9 9 9 9 9 9 9 9 9 9 8
5 5 4 4 4 5 5 5 5 5 5 5 5 5 5 6 6 6 7 7 7 8 8 8 8 8 8 8 9 9 9 9 9 9 9 9 9 9 9 9 9 9 9 9 9 9 8 8 8
4 4 3 3 3 4 4 4 5 5 5 4 4 5 5 5 5 6 6 6 7 7 7 7 7 7 7 8 8 8 8 8 8 8 8 8 8 8 8 8 8 8 8 8 8 8 8 7 7
4 3 3 3 3 2 3 4 5 3 4 4 4 4 4 4 5 5 5 6 6 6 6 6 7 7 7 7 7 7 7 7 7 7 7 7 7 8 8 8 7 7 7 7 7 7 7 7 7
Wind_Speed
6 5 2 4 5 3 4 6 4 2 1 1 2 6 9 6 4 6 4 11 13 14 17 19 20 19 19 18 18 17 17 16 16 16 16 16 16 16 15 15 15 15 15 15 15 15 15 15 15
3 1 3 4 5 3 6 6 6 5 4 4 4 5 7 4 3 8 7 12 16 15 17 18 20 19 19 18 18 17 17 16 16 16 15 15 15 15 15 15 14 15 15 14 14 14 14 14 14
2 1 3 4 4 7 6 6 7 4 3 2 3 5 6 5 5 6 9 15 15 13 16 18 20 20 19 19 18 17 17 17 16 16 15 15 15 14 14 14 14 14 14 14 13 13 13 13 13
2 3 3 3 7 7 6 4 4 3 1 2 5 5 3 1 4 8 15 16 15 12 16 19 20 19 19 18 18 17 17 16 16 16 15 15 14 14 14 14 14 14 13 13 13 13 12 12 12
2 3 3 3 7 6 6 5 2 3 2 2 5 6 3 5 8 15 16 16 16 12 15 18 19 19 18 18 17 17 16 16 15 15 15 14 14 14 14 13 13 13 12 12 12 12 11 11 11
2 3 4 6 7 5 5 5 1 2 2 2 6 6 2 1 10 14 14 14 14 14 14 17 19 19 18 18 17 16 16 16 15 15 15 14 14 14 13 13 13 12 12 11 11 11 10 10 10
3 4 5 6 5 5 6 3 4 4 3 3 6 7 3 3 8 12 13 13 12 13 13 13 15 17 17 17 16 16 15 15 15 15 14 14 13 13 13 12 12 12 11 11 10 10 9 9 9
4 4 4 4 5 6 4 2 2 5 4 1 5 9 7 7 8 12 12 12 12 11 11 11 13 14 14 15 16 15 15 14 14 14 14 13 13 12 12 12 11 11 10 10 9 9 8 8 8
3 3 6 6 6 5 2 1 1 1 4 3 2 4 7 12 13 14 12 10 10 10 9 10 11 12 13 13 14 14 14 14 13 13 14 12 11 10 10 10 10 10 10 9 8 7 7 6 6
4 5 8 4 3 2 1 1 1 2 4 3 4 5 9 12 14 15 15 14 12 11 10 9 9 10 11 11 11 11 10 11 11 11 11 11 10 9 8 9 10 9 9 8 7 6 5 4 4
5 7 5 3 3 1 2 3 2 4 2 4 8 10 11 12 12 13 13 13 12 12 10 9 9 10 10 9 10 8 8 9 10 10 10 10 9 8 7 7 7 7 7 6 5 5 4 3 3
4 4 3 3 2 1 1 2 3 1 4 5 10 14 12 12 12 12 12 11 10 10 10 9 9 9 9 9 8 8 8 7 8 9 10 10 7 6 6 6 6 6 6 5 4 4 3 2 2
4 3 2 3 1 1 2 2 1 2 1 4 8 11 13 12 9 8 9 9 9 9 9 10 9 9 9 8 7 8 7 8 9 9 9 10 7 6 6 5 5 5 6 5 4 3 2 1 1
4 3 3 3 2 1 1 2 1 2 1 6 9 9 9 10 9 7 8 9 9 9 9 8 9 9 9 7 6 7 8 8 9 9 9 10 9 7 6 5 4 5 6 6 5 4 3 2 1
2 1 3 3 3 2 2 3 3 3 3 5 6 6 6 6 6 7 8 8 9 9 9 9 9 8 9 8 7 7 8 8 7 8 9 10 10 9 7 5 4 5 6 6 5 3 2 2 1
2 2 3 4 4 2 5 6 5 2 4 4 3 4 4 4 5 5 6 6 7 7 8 8 8 8 8 7 7 6 7 7 7 8 8 9 9 9 7 5 4 5 6 5 3 2 2 1 1
3 5 6 4 4 3 4 5 5 1 3 3 3 3 4 3 2 3 4 6 7 7 8 7 7 7 7 7 7 7 7 6 6 7 7 8 8 9 7 5 5 7 5 4 3 2 2 2 1
6 5 4 5 3 4 4 4 5 3 3 4 4 3 4 4 4 3 3 4 5 6 6 7 6 6 6 5 5 4 4 4 5 6 6 8 7 8 7 5 5 6 4 3 3 3 2 2 1
4 4 4 4 3 3 5 5 6 4 2 3 4 4 4 4 3 2 3 4 5 5 5 6 7 6 6 5 5 4 4 3 3 4 6 7 7 8 7 5 4 5 4 4 4 3 2 1 1
3 3 2 1 1 2 3 5 6 4 3 4 5 5 5 3 1 2 2 3 4 5 5 5 6 6 5 5 4 3 3 3 2 3 4 6 7 7 6 5 4 4 4 4 3 3 2 1 1
3 5 4 2 2 1 2 4 5 3 2 2 3 4 4 5 4 3 3 3 4 4 5 5 5 5 4 5 4 4 3 3 2 2 2 3 6 6 6 6 5 3 3 4 3 3 4 2 1
4 3 4 4 3 2 2 4 6 4 3 3 3 2 3 3 4 4 3 3 4 4 3 4 4 4 4 5 6 8 6 4 4 3 2 2 4 5 6 6 5 4 3 4 3 3 2 4 2
4 3 3 3 3 0 1 3 6 3 4 5 4 3 3 3 4 4 4 4 3 2 3 3 4 4 4 5 6 7 5 3 3 3 4 2 2 4 5 5 5 4 2 3 3 3 3 3 3
3 4 5 4 3 3 5 5 5 4 6 5 5 4 3 2 3 3 3 3 2 2 2 3 4 4 4 4 5 6 7 6 6 5 4 3 2 2 3 4 4 4 3 3 3 3 3 3 3
3 5 2 1 2 5 4 4 6 5 4 7 7 5 3 3 3 3 3 3 3 3 2 2 4 4 3 4 4 4 5 6 7 6 5 4 3 2 2 3 4 3 3 3 4 3 2 2 3
2 5 5 5 5 3 2 5 5 4 3 3 4 4 3 3 3 3 3 3 3 3 2 2 3 3 3 4 3 3 4 3 3 4 4 4 3 3 3 4 4 4 3 3 3 3 2 2 2
3 3 3 3 1 1 3 4 5 2 1 1 2 3 2 2 2 2 2 2 2 2 2 2 3 3 3 3 3 3 3 3 3 3 3 3 2 2 4 4 4 4 3 3 3 2 2 2 2
3 3 3 4 4 2 3 4 4 3 3 1 2 2 2 2 2 2 2 2 1 2 1 2 2 3 3 3 3 3 3 3 3 3 3 3 2 3 3 3 3 3 3 3 3 2 2 2 1
1 2 2 2 3 4 3 5 3 5 4 4 3 2 2 2 1 1 1 1 2 2 2 2 2 2 2 3 3 3 3 3 3 3 3 2 2 3 3 3 3 3 3 2 2 2 2 2 1
2 3 4 3 2 2 2 5 3 2 1 2 2 2 2 2 2 2 2 2 2 2 2 2 2 2 2 2 3 3 3 3 3 3 3 3 3 2 3 3 3 2 2 2 2 2 2 2 1
Wind_Direction
319 340 62 61 66 70 228 242 236 246 220 222 107 107 113 112 139 153 129 137 135 141 145 144 142 139 135 131 128 125 121 118 116 114 113 113 112 111 110 107 104 101 98 95 94 92 92 92 91
346 9 63 70 112 172 249 241 230 226 199 162 105 94 88 82 87 111 125 141 138 140 142 144 143 140 137 133 130 128 125 122 120 119 117 116 115 113 110 108 105 102 99 97 96 96 94 92 90
346 88 96 100 158 190 223 229 219 247 247 160 89 70 104 124 125 130 145 141 135 136 140 142 142 140 138 135 133 130 128 126 124 122 120 118 118 115 113 111 108 105 101 100 99 98 96 93 88
71 69 73 124 214 222 219 230 207 196 303 74 111 76 66 52 157 137 137 137 133 134 138 142 141 139 138 138 136 134 131 129 127 125 123 121 120 117 115 113 111 108 106 104 103 100 97 92 88
75 102 125 212 233 245 238 251 230 192 185 108 112 101 47 345 115 127 135 136 136 135 138 144 142 141 139 138 139 138 135 133 132 131 128 125 123 120 117 115 113 111 110 108 105 102 98 91 87
97 106 153 212 232 253 253 246 211 188 188 126 111 109 103 70 124 134 137 137 138 138 139 144 143 142 141 140 139 140 140 139 137 134 132 129 126 124 122 119 116 114 112 110 108 104 98 90 86
146 147 187 201 219 245 250 236 189 181 173 177 136 116 130 154 141 135 135 133 133 135 136 139 141 142 142 142 141 140 142 142 139 136 134 133 130 129 127 124 122 120 118 116 113 109 101 93 87
161 146 195 206 200 228 249 214 193 168 180 145 123 138 166 181 142 126 127 128 132 135 137 138 138 140 141 142 143 142 140 141 141 138 135 134 131 129 128 126 126 125 124 123 119 114 106 97 89
140 157 204 204 195 222 244 186 299 148 109 62 65 154 161 145 131 126 127 129 137 143 145 142 140 140 141 143 144 142 141 139 138 138 135 131 128 128 129 131 132 131 129 127 123 119 110 99 91
160 196 214 215 208 230 284 201 219 93 83 66 54 67 115 132 138 143 148 151 154 157 156 152 147 146 144 145 142 142 140 138 136 139 139 136 132 131 133 136 138 137 135 132 129 126 114 102 93
180 200 217 261 282 304 351 338 338 131 146 177 155 144 139 137 145 153 158 160 161 159 157 158 154 151 149 145 146 146 144 142 141 142 146 143 133 130 131 132 136 137 135 129 126 121 118 115 111
194 226 225 262 308 4 347 351 8 105 193 179 161 152 149 151 157 162 163 163 160 158 159 159 156 153 152 150 150 150 149 148 149 151 150 147 138 135 139 138 143 142 142 134 132 132 132 127 131
216 230 239 256 320 360 32 10 357 307 248 135 140 146 156 163 164 163 162 163 160 163 163 162 159 158 155 152 155 155 156 157 158 157 158 155 150 149 147 145 147 149 147 144 141 141 134 124 129
205 227 264 272 260 271 130 318 14 267 121 126 140 157 164 168 165 157 161 166 168 167 165 164 161 160 156 156 158 160 160 160 160 161 164 161 157 156 153 151 152 157 158 157 153 150 144 136 118
169 217 299 264 217 206 117 300 242 228 112 129 151 162 162 163 158 166 170 169 170 169 166 166 165 158 156 158 162 161 160 157 157 160 163 164 161 160 156 152 154 164 163 154 145 136 120 107 102
145 158 226 253 196 182 140 241 260 243 134 157 177 174 164 168 165 164 160 157 158 157 159 165 165 158 158 156 155 152 154 152 153 156 156 162 165 162 155 153 163 168 158 146 137 131 130 123 120
153 192 207 248 200 155 158 228 266 251 152 180 193 182 172 174 182 171 163 160 160 159 159 156 153 156 159 153 149 150 149 149 149 148 149 153 161 160 153 157 155 152 138 135 141 130 136 143 144
185 180 187 206 197 141 174 226 268 272 187 197 195 190 182 185 207 185 160 149 146 146 147 147 144 149 150 143 131 132 135 140 142 146 150 149 152 155 151 144 149 147 140 142 142 140 119 136 149
158 156 198 222 197 157 194 229 254 266 241 212 192 188 187 197 210 157 140 135 129 133 139 149 147 150 147 151 154 152 158 159 153 152 152 151 151 151 147 144 147 151 160 165 158 144 126 92 102
151 161 195 263 126 176 204 249 253 246 220 198 189 194 196 191 130 125 125 126 140 149 155 154 157 159 161 165 163 156 148 153 158 142 142 149 150 148 147 144 147 153 153 150 153 146 145 126 113
197 180 189 197 19 58 113 289 267 268 245 221 197 192 185 180 179 167 147 142 141 151 163 166 164 162 160 146 131 115 97 90 113 145 153 151 154 151 146 144 143 139 151 163 170 161 155 168 175
219 193 183 165 128 242 161 240 266 250 256 243 230 198 189 183 161 155 158 158 162 173 166 155 154 151 150 143 149 152 157 169 185 176 166 147 146 143 142 140 141 137 144 162 172 164 158 158 175
202 184 157 158 143 193 232 197 270 248 234 235 231 213 202 186 161 160 170 174 164 154 153 150 146 146 149 148 157 160 157 158 143 143 144 136 122 129 131 135 131 130 137 156 153 147 151 162 171
122 87 61 54 98 225 216 194 261 233 218 218 222 214 202 173 152 150 144 122 99 105 117 134 141 142 146 150 153 156 157 154 147 153 158 152 138 124 125 128 130 133 137 152 154 153 155 162 159
94 110 106 124 199 234 197 196 247 248 225 214 210 207 192 155 142 132 122 115 116 123 129 140 143 144 145 150 153 153 156 160 166 168 167 161 160 166 166 143 140 142 146 148 147 146 150 155 154
190 150 161 182 198 243 189 215 249 267 253 218 186 171 150 143 143 145 151 147 145 149 142 143 148 150 149 154 157 147 146 154 163 163 162 168 173 179 166 149 145 145 143 136 142 145 153 145 154
155 186 171 137 124 178 235 268 296 321 6 69 109 120 127 134 129 120 134 131 140 145 156 161 157 153 152 152 151 146 145 146 146 144 141 152 150 147 148 147 144 139 136 138 142 149 156 150 156
141 149 112 135 158 211 244 240 236 245 231 201 159 143 128 104 90 95 122 135 135 148 140 130 141 151 149 142 148 149 146 143 136 132 136 145 141 129 132 138 139 136 133 131 137 143 151 147 149
89 122 129 146 162 168 215 259 250 229 217 195 186 162 140 116 96 102 116 132 117 97 100 109 113 112 118 127 130 129 135 131 125 129 138 144 135 134 131 138 135 133 135 134 133 148 150 151 134
167 169 150 157 227 194 192 264 318 305 273 158 139 126 107 88 76 84 80 76 83 88 94 99 108 116 123 131 128 129 127 128 131 135 136 128 120 117 121 121 127 130 130 134 149 159 157 158 156
Height
1511 1512 1514 1516 1520 1529 1528 1518 1509 1505 1503 1502 1501 1501 1503 1507 1512 1518 1515 1516 1520 1523 1526 1529 1532 1535 1536 1538 1539 1541 1542 1543 1544 1545 1545 1546 1547 1548 1548 1549 1549 1550 1550 1550 1551 1551 1551 1551 1551
1511 1512 1515 1516 1524 1533 1526 1513 1506 1502 1500 1500 1501 1502 1503 1507 1508 1511 1513 1517 1520 1523 1526 1529 1532 1535 1537 1538 1540 1541 1542 1543 1544 1545 1546 1547 1548 1548 1549 1550 1550 1550 1551 1551 1551 1552 1552 1552 1552
1510 1512 1514 1516 1523 1525 1517 1505 1502 1499 1499 1499 1501 1503 1505 1508 1509 1510 1513 1517 1521 1524 1527 1530 1532 1535 1537 1539 1540 1542 1543 1544 1545 1546 1547 1548 1548 1549 1550 1550 1551 1551 1552 1552 1552 1552 1553 1553 1553
1509 1512 1514 1518 1519 1513 1506 1500 1498 1498 1498 1499 1500 1504 1507 1509 1510 1511 1514 1517 1521 1524 1527 1530 1533 1535 1537 1539 1541 1542 1543 1545 1546 1547 1548 1549 1549 1550 1551 1551 1552 1552 1552 1553 1553 1553 1554 1554 1554
1508 1510 1515 1518 1514 1506 1501 1498 1498 1498 1498 1498 1499 1504 1507 1510 1510 1512 1515 1518 1521 1524 1527 1530 1533 1535 1537 1539 1541 1542 1544 1545 1546 1547 1548 1549 1550 1551 1551 1552 1552 1553 1553 1554 1554 1554 1555 1555 1556
1507 1508 1517 1517 1510 1502 1498 1497 1497 1498 1498 1498 1500 1504 1508 1510 1511 1513 1516 1519 1522 1524 1527 1530 1533 1535 1538 1540 1541 1543 1544 1545 1547 1548 1549 1550 1551 1552 1552 1553 1553 1554 1554 1555 1555 1555 1556 1556 1557
1506 1508 1511 1510 1507 1503 1497 1496 1497 1496 1497 1498 1498 1503 1508 1511 1512 1514 1517 1520 1523 1525 1528 1530 1533 1535 1538 1540 1541 1543 1544 1546 1547 1548 1549 1550 1551 1552 1553 1553 1554 1554 1555 1555 1556 1556 1557 1557 1557
1503 1506 1506 1506 1504 1500 1495 1495 1495 1495 1496 1498 1498 1501 1505 1509 1512 1515 1517 1520 1523 1526 1528 1530 1533 1535 1537 1539 1541 1543 1544 1546 1547 1548 1550 1551 1552 1552 1553 1553 1554 1555 1555 1556 1557 1557 1557 1558 1558
1501 1507 1505 1502 1500 1496 1493 1494 1494 1494 1495 1496 1497 1499 1501 1507 1510 1514 1517 1520 1523 1526 1528 1530 1532 1535 1537 1539 1541 1543 1544 1545 1547 1548 1549 1550 1551 1552 1553 1554 1554 1555 1556 1556 1557 1557 1558 1558 1558
1499 1503 1499 1495 1494 1493 1492 1492 1493 1494 1494 1496 1497 1499 1502 1505 1508 1511 1514 1517 1520 1524 1527 1529 1532 1534 1536 1538 1540 1542 1543 1545 1546 1547 1549 1550 1551 1552 1553 1554 1554 1555 1556 1556 1557 1558 1558 1558 1558
1495 1496 1494 1492 1491 1491 1492 1492 1492 1493 1495 1495 1495 1497 1501 1504 1507 1510 1513 1516 1519 1522 1525 1528 1531 1533 1535 1537 1539 1541 1542 1544 1545 1547 1548 1549 1550 1552 1553 1553 1554 1555 1556 1556 1557 1557 1558 1558 1558
1493 1492 1492 1491 1491 1491 1492 1492 1493 1492 1493 1494 1495 1496 1499 1503 1506 1509 1512 1515 1518 1521 1524 1526 1529 1532 1534 1536 1538 1540 1541 1543 1544 1546 1547 1548 1549 1551 1552 1552 1553 1554 1555 1555 1556 1557 1557 1557 1558
1491 1491 1491 1491 1491 1491 1491 1492 1493 1493 1493 1493 1495 1497 1499 1502 1505 1509 1512 1515 1517 1519 1522 1525 1528 1530 1533 1535 1537 1538 1540 1542 1543 1545 1546 1547 1548 1549 1551 1552 1552 1553 1554 1555 1555 1556 1556 1557 1557
1489 1490 1490 1490 1490 1491 1492 1492 1493 1493 1493 1493 1494 1496 1499 1501 1504 1507 1510 1513 1516 1518 1521 1524 1526 1529 1531 1533 1535 1537 1539 1541 1542 1543 1545 1546 1547 1548 1549 1550 1551 1552 1553 1553 1554 1555 1555 1555 1556
1488 1491 1491 1489 1489 1490 1491 1494 1493 1492 1492 1492 1494 1496 1499 1501 1503 1505 1508 1511 1514 1516 1519 1522 1525 1527 1529 1531 1534 1536 1537 1539 1540 1542 1543 1545 1546 1547 1548 1549 1550 1551 1551 1552 1553 1553 1554 1554 1555
1488 1492 1495 1490 1489 1490 1495 1498 1492 1492 1492 1492 1494 1496 1497 1499 1502 1504 1507 1509 1512 1514 1517 1520 1523 1525 1527 1530 1532 1534 1535 1537 1538 1540 1541 1543 1544 1545 1546 1547 1548 1549 1550 1550 1551 1552 1552 1553 1553
1490 1495 1495 1491 1488 1489 1493 1496 1491 1491 1491 1491 1493 1494 1496 1498 1500 1502 1505 1507 1509 1512 1514 1517 1520 1522 1525 1527 1529 1531 1533 1535 1536 1538 1539 1541 1542 1543 1544 1545 1546 1547 1548 1549 1549 1550 1550 1551 1551
1491 1492 1493 1492 1488 1489 1493 1494 1491 1490 1491 1491 1492 1493 1494 1496 1497 1500 1502 1505 1507 1509 1512 1514 1517 1520 1522 1525 1527 1529 1531 1532 1534 1536 1537 1538 1540 1540 1541 1542 1544 1545 1546 1546 1547 1548 1549 1549 1549
1487 1489 1491 1490 1487 1490 1493 1493 1491 1489 1489 1489 1490 1491 1493 1494 1496 1498 1500 1502 1504 1506 1509 1511 1514 1516 1519 1521 1523 1525 1527 1529 1531 1533 1534 1536 1537 1538 1539 1540 1541 1543 1543 1544 1545 1546 1546 1547 1547
1487 1490 1492 1489 1488 1490 1493 1493 1489 1488 1488 1488 1489 1490 1491 1492 1494 1496 1498 1500 1502 1503 1506 1508 1511 1513 1516 1518 1520 1523 1525 1527 1529 1530 1532 1533 1535 1536 1537 1538 1539 1540 1541 1542 1543 1543 1544 1544 1545
1487 1490 1491 1491 1490 1490 1493 1495 1491 1488 1487 1487 1488 1488 1489 1490 1491 1493 1495 1497 1499 1501 1503 1505 1507 1510 1512 1515 1517 1520 1522 1524 1526 1527 1529 1530 1532 1533 1534 1536 1536 1537 1538 1539 1540 1541 1542 1542 1543
1488 1486 1488 1490 1495 1499 1497 1504 1494 1489 1488 1486 1486 1487 1487 1488 1489 1491 1493 1495 1496 1498 1500 1502 1504 1507 1509 1512 1514 1515 1517 1519 1522 1524 1526 1527 1529 1531 1532 1533 1534 1535 1536 1537 1538 1538 1539 1540 1540
1485 1484 1487 1490 1496 1502 1500 1504 1496 1489 1488 1486 1486 1485 1485 1487 1487 1489 1491 1492 1494 1496 1498 1500 1502 1504 1506 1509 1511 1513 1515 1517 1519 1521 1523 1524 1526 1528 1529 1530 1531 1532 1533 1534 1535 1535 1536 1537 1537
1484 1487 1490 1494 1499 1505 1500 1502 1497 1490 1485 1484 1484 1483 1484 1485 1486 1487 1489 1491 1492 1494 1496 1497 1499 1501 1503 1506 1508 1510 1512 1514 1516 1518 1520 1521 1523 1524 1526 1527 1528 1529 1530 1531 1532 1533 1533 1534 1534
1486 1493 1501 1503 1506 1503 1496 1497 1494 1484 1482 1481 1481 1481 1482 1483 1484 1485 1487 1488 1490 1492 1493 1495 1497 1498 1500 1502 1505 1507 1509 1511 1513 1515 1516 1518 1519 1521 1522 1524 1525 1526 1527 1528 1529 1529 1530 1530 1530
1489 1492 1500 1503 1502 1501 1496 1496 1489 1482 1479 1478 1479 1480 1481 1482 1483 1484 1485 1486 1488 1490 1491 1493 1494 1496 1497 1499 1501 1504 1506 1508 1510 1512 1513 1515 1516 1518 1519 1521 1522 1523 1524 1524 1525 1526 1526 1527 1527
1490 1493 1493 1500 1502 1503 1499 1494 1486 1480 1479 1478 1479 1479 1480 1480 1481 1482 1483 1485 1486 1488 1490 1491 1492 1493 1495 1496 1499 1501 1503 1505 1507 1509 1511 1512 1514 1515 1516 1517 1519 1519 1520 1521 1522 1522 1523 1523 1524
1488 1491 1497 1500 1503 1502 1498 1494 1488 1483 1481 1480 1479 1479 1479 1480 1480 1481 1482 1483 1485 1487 1488 1489 1490 1491 1492 1494 1496 1498 1500 1502 1504 1505 1507 1509 1511 1512 1513 1514 1515 1516 1517 1518 1518 1519 1519 1520 1520
1492 1493 1496 1499 1499 1502 1501 1496 1482 1481 1479 1479 1478 1478 1479 1479 1479 1480 1481 1482 1484 1485 1486 1487 1488 1489 1490 1492 1494 1495 1497 1499 1500 1502 1504 1506 1508 1509 1510 1511 1512 1513 1514 1515 1515 1516 1516 1516 1516
1491 1492 1495 1500 1503 1503 1502 1496 1481 1480 1479 1478 1478 1479 1479 1479 1479 1479 1480 1481 1482 1483 1484 1486 1486 1487 1489 1490 1492 1493 1495 1497 1498 1499 1501 1503 1505 1506 1507 1508 1509 1510 1511 1512 1512 1512 1512 1513 1513